Year,Month,Day,Hour,Minute,Value (Times are PST for temperature in C)
2017,08,16,00,00,13.60
2017,08,16,00,01,13.60
2017,08,16,00,02,13.60
2017,08,16,00,03,13.60
2017,08,16,00,04,13.60
2017,08,16,00,05,13.60
2017,08,16,00,06,13.60
2017,08,16,00,07,13.60
2017,08,16,00,08,13.50
2017,08,16,00,09,13.50
2017,08,16,00,10,13.50
2017,08,16,00,11,13.40
2017,08,16,00,12,13.40
2017,08,16,00,13,13.40
2017,08,16,00,14,13.40
2017,08,16,00,15,13.40
2017,08,16,00,16,13.40
2017,08,16,00,17,13.40
2017,08,16,00,18,13.40
2017,08,16,00,19,13.30
2017,08,16,00,20,13.30
2017,08,16,00,21,13.30
2017,08,16,00,22,13.30
2017,08,16,00,23,13.30
2017,08,16,00,24,13.30
2017,08,16,00,25,13.20
2017,08,16,00,26,13.20
2017,08,16,00,27,13.20
2017,08,16,00,28,13.20
2017,08,16,00,29,13.20
2017,08,16,00,30,13.10
2017,08,16,00,31,13.10
2017,08,16,00,32,13.10
2017,08,16,00,33,13.10
2017,08,16,00,34,13.10
2017,08,16,00,35,13.10
2017,08,16,00,36,13.10
2017,08,16,00,37,13.10
2017,08,16,00,38,13.10
2017,08,16,00,39,13.00
2017,08,16,00,40,13.00
2017,08,16,00,41,13.00
2017,08,16,00,42,13.00
2017,08,16,00,43,13.00
2017,08,16,00,44,12.90
2017,08,16,00,45,12.90
2017,08,16,00,46,12.90
2017,08,16,00,47,12.90
2017,08,16,00,48,12.90
2017,08,16,00,49,12.90
2017,08,16,00,50,12.90
2017,08,16,00,51,12.90
2017,08,16,00,52,12.80
2017,08,16,00,53,12.80
2017,08,16,00,54,12.80
2017,08,16,00,55,12.80
2017,08,16,00,56,12.80
2017,08,16,00,57,12.80
2017,08,16,00,58,12.80
2017,08,16,00,59,12.80
2017,08,16,01,00,12.70
2017,08,16,01,01,12.70
2017,08,16,01,02,12.70
2017,08,16,01,03,12.70
2017,08,16,01,04,12.70
2017,08,16,01,05,12.70
2017,08,16,01,06,12.70
2017,08,16,01,07,12.70
2017,08,16,01,08,12.70
2017,08,16,01,09,12.70
2017,08,16,01,10,12.70
2017,08,16,01,11,12.70
2017,08,16,01,12,12.70
2017,08,16,01,13,12.70
2017,08,16,01,14,12.70
2017,08,16,01,15,12.70
2017,08,16,01,16,12.70
2017,08,16,01,17,12.70
2017,08,16,01,18,12.60
2017,08,16,01,19,12.60
2017,08,16,01,20,12.60
2017,08,16,01,21,12.60
2017,08,16,01,22,12.60
2017,08,16,01,23,12.60
2017,08,16,01,24,12.60
2017,08,16,01,25,12.50
2017,08,16,01,26,12.50
2017,08,16,01,27,12.50
2017,08,16,01,28,12.50
2017,08,16,01,29,12.50
2017,08,16,01,30,12.50
2017,08,16,01,31,12.40
2017,08,16,01,32,12.40
2017,08,16,01,33,12.40
2017,08,16,01,34,12.40
2017,08,16,01,35,12.40
2017,08,16,01,36,12.40
2017,08,16,01,37,12.30
2017,08,16,01,38,12.30
2017,08,16,01,39,12.30
2017,08,16,01,40,12.30
2017,08,16,01,41,12.30
2017,08,16,01,42,12.20
2017,08,16,01,43,12.20
2017,08,16,01,44,12.20
2017,08,16,01,45,12.20
2017,08,16,01,46,12.30
2017,08,16,01,47,12.30
2017,08,16,01,48,12.30
2017,08,16,01,49,12.30
2017,08,16,01,50,12.30
2017,08,16,01,51,12.30
2017,08,16,01,52,12.30
2017,08,16,01,53,12.30
2017,08,16,01,54,12.30
2017,08,16,01,55,12.30
2017,08,16,01,56,12.30
2017,08,16,01,57,12.30
2017,08,16,01,58,12.30
2017,08,16,01,59,12.30
2017,08,16,02,00,12.30
2017,08,16,02,01,12.20
2017,08,16,02,02,12.20
2017,08,16,02,03,12.20
2017,08,16,02,04,12.20
2017,08,16,02,05,12.20
2017,08,16,02,06,12.10
2017,08,16,02,07,12.10
2017,08,16,02,08,12.10
2017,08,16,02,09,12.10
2017,08,16,02,10,12.00
2017,08,16,02,11,12.00
2017,08,16,02,12,12.00
2017,08,16,02,13,12.00
2017,08,16,02,14,12.00
2017,08,16,02,15,12.00
2017,08,16,02,16,11.90
2017,08,16,02,17,11.90
2017,08,16,02,18,11.90
2017,08,16,02,19,11.90
2017,08,16,02,20,11.90
2017,08,16,02,21,11.90
2017,08,16,02,22,11.80
2017,08,16,02,23,11.80
2017,08,16,02,24,11.80
2017,08,16,02,25,11.80
2017,08,16,02,26,11.80
2017,08,16,02,27,11.80
2017,08,16,02,28,11.80
2017,08,16,02,29,11.70
2017,08,16,02,30,11.70
2017,08,16,02,31,11.70
2017,08,16,02,32,11.60
2017,08,16,02,33,11.60
2017,08,16,02,34,11.60
2017,08,16,02,35,11.60
2017,08,16,02,36,11.60
2017,08,16,02,37,11.60
2017,08,16,02,38,11.60
2017,08,16,02,39,11.50
2017,08,16,02,40,11.50
2017,08,16,02,41,11.50
2017,08,16,02,42,11.50
2017,08,16,02,43,11.50
2017,08,16,02,44,11.50
2017,08,16,02,45,11.50
2017,08,16,02,46,11.50
2017,08,16,02,47,11.50
2017,08,16,02,48,11.50
2017,08,16,02,49,11.50
2017,08,16,02,50,11.40
2017,08,16,02,51,11.40
2017,08,16,02,52,11.40
2017,08,16,02,53,11.40
2017,08,16,02,54,11.40
2017,08,16,02,55,11.40
2017,08,16,02,56,11.40
2017,08,16,02,57,11.40
2017,08,16,02,58,11.40
2017,08,16,02,59,11.40
2017,08,16,03,00,11.40
2017,08,16,03,01,11.40
2017,08,16,03,02,11.40
2017,08,16,03,03,11.40
2017,08,16,03,04,11.40
2017,08,16,03,05,11.40
2017,08,16,03,06,11.40
2017,08,16,03,07,11.40
2017,08,16,03,08,11.40
2017,08,16,03,09,11.40
2017,08,16,03,10,11.40
2017,08,16,03,11,11.40
2017,08,16,03,12,11.40
2017,08,16,03,13,11.40
2017,08,16,03,14,11.40
2017,08,16,03,15,11.40
2017,08,16,03,16,11.40
2017,08,16,03,17,11.40
2017,08,16,03,18,11.40
2017,08,16,03,19,11.40
2017,08,16,03,20,11.40
2017,08,16,03,21,11.40
2017,08,16,03,22,11.40
2017,08,16,03,23,11.40
2017,08,16,03,24,11.40
2017,08,16,03,25,11.40
2017,08,16,03,26,11.40
2017,08,16,03,27,11.40
2017,08,16,03,28,11.40
2017,08,16,03,29,11.40
2017,08,16,03,30,11.30
2017,08,16,03,31,11.30
2017,08,16,03,32,11.30
2017,08,16,03,33,11.20
2017,08,16,03,34,11.20
2017,08,16,03,35,11.20
2017,08,16,03,36,11.20
2017,08,16,03,37,11.20
2017,08,16,03,38,11.20
2017,08,16,03,39,11.10
2017,08,16,03,40,11.10
2017,08,16,03,41,11.10
2017,08,16,03,42,11.10
2017,08,16,03,43,11.10
2017,08,16,03,44,11.10
2017,08,16,03,45,11.10
2017,08,16,03,46,11.00
2017,08,16,03,47,11.00
2017,08,16,03,48,11.00
2017,08,16,03,49,11.00
2017,08,16,03,50,11.00
2017,08,16,03,51,10.90
2017,08,16,03,52,10.90
2017,08,16,03,53,10.90
2017,08,16,03,54,10.90
2017,08,16,03,55,10.90
2017,08,16,03,56,10.90
2017,08,16,03,57,10.90
2017,08,16,03,58,10.90
2017,08,16,03,59,10.90
2017,08,16,04,00,10.90
2017,08,16,04,01,10.90
2017,08,16,04,02,10.80
2017,08,16,04,03,10.80
2017,08,16,04,04,10.80
2017,08,16,04,05,10.80
2017,08,16,04,06,10.80
2017,08,16,04,07,10.70
2017,08,16,04,08,10.70
2017,08,16,04,09,10.70
2017,08,16,04,10,10.70
2017,08,16,04,11,10.70
2017,08,16,04,12,10.70
2017,08,16,04,13,10.70
2017,08,16,04,14,10.70
2017,08,16,04,15,10.70
2017,08,16,04,16,10.70
2017,08,16,04,17,10.70
2017,08,16,04,18,10.70
2017,08,16,04,19,10.70
2017,08,16,04,20,10.70
2017,08,16,04,21,10.70
2017,08,16,04,22,10.70
2017,08,16,04,23,10.60
2017,08,16,04,24,10.60
2017,08,16,04,25,10.60
2017,08,16,04,26,10.50
2017,08,16,04,27,10.50
2017,08,16,04,28,10.40
2017,08,16,04,29,10.40
2017,08,16,04,30,10.40
2017,08,16,04,31,10.40
2017,08,16,04,32,10.40
2017,08,16,04,33,10.40
2017,08,16,04,34,10.40
2017,08,16,04,35,10.40
2017,08,16,04,36,10.50
2017,08,16,04,37,10.50
2017,08,16,04,38,10.50
2017,08,16,04,39,10.50
2017,08,16,04,40,10.50
2017,08,16,04,41,10.50
2017,08,16,04,42,10.60
2017,08,16,04,43,10.50
2017,08,16,04,44,10.60
2017,08,16,04,45,10.60
2017,08,16,04,46,10.60
2017,08,16,04,47,10.50
2017,08,16,04,48,10.50
2017,08,16,04,49,10.50
2017,08,16,04,50,10.40
2017,08,16,04,51,10.40
2017,08,16,04,52,10.40
2017,08,16,04,53,10.40
2017,08,16,04,54,10.40
2017,08,16,04,55,10.40
2017,08,16,04,56,10.40
2017,08,16,04,57,10.40
2017,08,16,04,58,10.40
2017,08,16,04,59,10.40
2017,08,16,05,00,10.40
2017,08,16,05,01,10.40
2017,08,16,05,02,10.40
2017,08,16,05,03,10.40
2017,08,16,05,04,10.50
2017,08,16,05,05,10.50
2017,08,16,05,06,10.50
2017,08,16,05,07,10.60
2017,08,16,05,08,10.60
2017,08,16,05,09,10.60
2017,08,16,05,10,10.60
2017,08,16,05,11,10.60
2017,08,16,05,12,10.60
2017,08,16,05,13,10.50
2017,08,16,05,14,10.50
2017,08,16,05,15,10.50
2017,08,16,05,16,10.40
2017,08,16,05,17,10.40
2017,08,16,05,18,10.40
2017,08,16,05,19,10.40
2017,08,16,05,20,10.40
2017,08,16,05,21,10.40
2017,08,16,05,22,10.40
2017,08,16,05,23,10.40
2017,08,16,05,24,10.40
2017,08,16,05,25,10.30
2017,08,16,05,26,10.30
2017,08,16,05,27,10.30
2017,08,16,05,28,10.30
2017,08,16,05,29,10.30
2017,08,16,05,30,10.30
2017,08,16,05,31,10.30
2017,08,16,05,32,10.30
2017,08,16,05,33,10.30
2017,08,16,05,34,10.30
2017,08,16,05,35,10.30
2017,08,16,05,36,10.40
2017,08,16,05,37,10.40
2017,08,16,05,38,10.50
2017,08,16,05,39,10.50
2017,08,16,05,40,10.50
2017,08,16,05,41,10.50
2017,08,16,05,42,10.50
2017,08,16,05,43,10.50
2017,08,16,05,44,10.50
2017,08,16,05,45,10.50
2017,08,16,05,46,10.50
2017,08,16,05,47,10.60
2017,08,16,05,48,10.60
2017,08,16,05,49,10.60
2017,08,16,05,50,10.60
2017,08,16,05,51,10.60
2017,08,16,05,52,10.60
2017,08,16,05,53,10.70
2017,08,16,05,54,10.70
2017,08,16,05,55,10.70
2017,08,16,05,56,10.70
2017,08,16,05,57,10.70
2017,08,16,05,58,10.70
2017,08,16,05,59,10.80
2017,08,16,06,00,10.80
2017,08,16,06,01,10.80
2017,08,16,06,02,10.80
2017,08,16,06,03,10.80
2017,08,16,06,04,10.80
2017,08,16,06,05,10.90
2017,08,16,06,06,10.90
2017,08,16,06,07,10.90
2017,08,16,06,08,10.90
2017,08,16,06,09,10.80
2017,08,16,06,10,10.70
2017,08,16,06,11,10.70
2017,08,16,06,12,10.60
2017,08,16,06,13,10.50
2017,08,16,06,14,10.50
2017,08,16,06,15,10.50
2017,08,16,06,16,10.50
2017,08,16,06,17,10.40
2017,08,16,06,18,10.40
2017,08,16,06,19,10.40
2017,08,16,06,20,10.40
2017,08,16,06,21,10.40
2017,08,16,06,22,10.50
2017,08,16,06,23,10.50
2017,08,16,06,24,10.50
2017,08,16,06,25,10.50
2017,08,16,06,26,10.50
2017,08,16,06,27,10.50
2017,08,16,06,28,10.60
2017,08,16,06,29,10.50
2017,08,16,06,30,10.50
2017,08,16,06,31,10.40
2017,08,16,06,32,10.40
2017,08,16,06,33,10.30
2017,08,16,06,34,10.30
2017,08,16,06,35,10.30
2017,08,16,06,36,10.30
2017,08,16,06,37,10.30
2017,08,16,06,38,10.30
2017,08,16,06,39,10.20
2017,08,16,06,40,10.20
2017,08,16,06,41,10.20
2017,08,16,06,42,10.20
2017,08,16,06,43,10.20
2017,08,16,06,44,10.20
2017,08,16,06,45,10.30
2017,08,16,06,46,10.30
2017,08,16,06,47,10.30
2017,08,16,06,48,10.30
2017,08,16,06,49,10.30
2017,08,16,06,50,10.30
2017,08,16,06,51,10.30
2017,08,16,06,52,10.30
2017,08,16,06,53,10.30
2017,08,16,06,54,10.40
2017,08,16,06,55,10.40
2017,08,16,06,56,10.40
2017,08,16,06,57,10.50
2017,08,16,06,58,10.50
2017,08,16,06,59,10.60
2017,08,16,07,00,10.60
2017,08,16,07,01,10.60
2017,08,16,07,02,10.70
2017,08,16,07,03,10.70
2017,08,16,07,04,10.70
2017,08,16,07,05,10.80
2017,08,16,07,06,10.80
2017,08,16,07,07,10.80
2017,08,16,07,08,10.90
2017,08,16,07,09,10.90
2017,08,16,07,10,11.00
2017,08,16,07,11,11.10
2017,08,16,07,12,11.20
2017,08,16,07,13,11.20
2017,08,16,07,14,11.30
2017,08,16,07,15,11.40
2017,08,16,07,16,11.40
2017,08,16,07,17,11.40
2017,08,16,07,18,11.50
2017,08,16,07,19,11.50
2017,08,16,07,20,11.50
2017,08,16,07,21,11.60
2017,08,16,07,22,11.60
2017,08,16,07,23,11.60
2017,08,16,07,24,11.70
2017,08,16,07,25,11.70
2017,08,16,07,26,11.80
2017,08,16,07,27,11.80
2017,08,16,07,28,11.90
2017,08,16,07,29,12.00
2017,08,16,07,30,12.10
2017,08,16,07,31,12.20
2017,08,16,07,32,12.30
2017,08,16,07,33,12.40
2017,08,16,07,34,12.50
2017,08,16,07,35,12.60
2017,08,16,07,36,12.70
2017,08,16,07,37,12.80
2017,08,16,07,38,12.90
2017,08,16,07,39,13.00
2017,08,16,07,40,13.10
2017,08,16,07,41,13.20
2017,08,16,07,42,13.30
2017,08,16,07,43,13.40
2017,08,16,07,44,13.50
2017,08,16,07,45,13.60
2017,08,16,07,46,13.70
2017,08,16,07,47,13.80
2017,08,16,07,48,14.00
2017,08,16,07,49,14.10
2017,08,16,07,50,14.20
2017,08,16,07,51,14.30
2017,08,16,07,52,14.30
2017,08,16,07,53,14.40
2017,08,16,07,54,14.50
2017,08,16,07,55,14.60
2017,08,16,07,56,14.70
2017,08,16,07,57,14.80
2017,08,16,07,58,14.90
2017,08,16,07,59,14.90
2017,08,16,08,00,15.00
2017,08,16,08,01,15.10
2017,08,16,08,02,15.20
2017,08,16,08,03,15.30
2017,08,16,08,04,15.30
2017,08,16,08,05,15.40
2017,08,16,08,06,15.50
2017,08,16,08,07,15.50
2017,08,16,08,08,15.60
2017,08,16,08,09,15.70
2017,08,16,08,10,15.70
2017,08,16,08,11,15.80
2017,08,16,08,12,15.80
2017,08,16,08,13,15.80
2017,08,16,08,14,15.90
2017,08,16,08,15,15.90
2017,08,16,08,16,15.90
2017,08,16,08,17,15.90
2017,08,16,08,18,16.00
2017,08,16,08,19,16.00
2017,08,16,08,20,16.10
2017,08,16,08,21,16.10
2017,08,16,08,22,16.10
2017,08,16,08,23,16.20
2017,08,16,08,24,16.20
2017,08,16,08,25,16.20
2017,08,16,08,26,16.20
2017,08,16,08,27,16.20
2017,08,16,08,28,16.20
2017,08,16,08,29,16.20
2017,08,16,08,30,16.30
2017,08,16,08,31,16.40
2017,08,16,08,32,16.50
2017,08,16,08,33,16.60
2017,08,16,08,34,16.60
2017,08,16,08,35,16.70
2017,08,16,08,36,16.70
2017,08,16,08,37,16.70
2017,08,16,08,38,16.70
2017,08,16,08,39,16.70
2017,08,16,08,40,16.70
2017,08,16,08,41,16.80
2017,08,16,08,42,16.80
2017,08,16,08,43,16.80
2017,08,16,08,44,16.80
2017,08,16,08,45,16.80
2017,08,16,08,46,16.80
2017,08,16,08,47,16.80
2017,08,16,08,48,16.80
2017,08,16,08,49,16.80
2017,08,16,08,50,16.90
2017,08,16,08,51,16.90
2017,08,16,08,52,16.90
2017,08,16,08,53,17.00
2017,08,16,08,54,17.00
2017,08,16,08,55,17.00
2017,08,16,08,56,17.10
2017,08,16,08,57,17.10
2017,08,16,08,58,17.10
2017,08,16,08,59,17.10
2017,08,16,09,00,17.10
2017,08,16,09,01,17.10
2017,08,16,09,02,17.20
2017,08,16,09,03,17.20
2017,08,16,09,04,17.20
2017,08,16,09,05,17.20
2017,08,16,09,06,17.20
2017,08,16,09,07,17.20
2017,08,16,09,08,17.20
2017,08,16,09,09,17.20
2017,08,16,09,10,17.20
2017,08,16,09,11,17.20
2017,08,16,09,12,17.30
2017,08,16,09,13,17.30
2017,08,16,09,14,17.30
2017,08,16,09,15,17.30
2017,08,16,09,16,17.30
2017,08,16,09,17,17.30
2017,08,16,09,18,17.30
2017,08,16,09,19,17.30
2017,08,16,09,20,17.30
2017,08,16,09,21,17.30
2017,08,16,09,22,17.30
2017,08,16,09,23,17.30
2017,08,16,09,24,17.30
2017,08,16,09,25,17.30
2017,08,16,09,26,17.40
2017,08,16,09,27,17.40
2017,08,16,09,28,17.40
2017,08,16,09,29,17.40
2017,08,16,09,30,17.40
2017,08,16,09,31,17.40
2017,08,16,09,32,17.40
2017,08,16,09,33,17.40
2017,08,16,09,34,17.50
2017,08,16,09,35,17.50
2017,08,16,09,36,17.60
2017,08,16,09,37,17.60
2017,08,16,09,38,17.70
2017,08,16,09,39,17.70
2017,08,16,09,40,17.70
2017,08,16,09,41,17.70
2017,08,16,09,42,17.70
2017,08,16,09,43,17.70
2017,08,16,09,44,17.70
2017,08,16,09,45,17.70
2017,08,16,09,46,17.80
2017,08,16,09,47,17.80
2017,08,16,09,48,17.90
2017,08,16,09,49,17.90
2017,08,16,09,50,18.00
2017,08,16,09,51,18.10
2017,08,16,09,52,18.10
2017,08,16,09,53,18.20
2017,08,16,09,54,18.20
2017,08,16,09,55,18.20
2017,08,16,09,56,18.20
2017,08,16,09,57,18.20
2017,08,16,09,58,18.30
2017,08,16,09,59,18.30
2017,08,16,10,00,18.30
2017,08,16,10,01,18.40
2017,08,16,10,02,18.40
2017,08,16,10,03,18.40
2017,08,16,10,04,18.50
2017,08,16,10,05,18.50
2017,08,16,10,06,18.60
2017,08,16,10,07,18.60
2017,08,16,10,08,18.60
2017,08,16,10,09,18.60
2017,08,16,10,10,18.60
2017,08,16,10,11,18.60
2017,08,16,10,12,18.60
2017,08,16,10,13,18.60
2017,08,16,10,14,18.60
2017,08,16,10,15,18.70
2017,08,16,10,16,18.70
2017,08,16,10,17,18.70
2017,08,16,10,18,18.80
2017,08,16,10,19,18.80
2017,08,16,10,20,18.80
2017,08,16,10,21,18.70
2017,08,16,10,22,18.70
2017,08,16,10,23,18.70
2017,08,16,10,24,18.70
2017,08,16,10,25,18.70
2017,08,16,10,26,18.70
2017,08,16,10,27,18.80
2017,08,16,10,28,18.80
2017,08,16,10,29,18.80
2017,08,16,10,30,18.80
2017,08,16,10,31,18.80
2017,08,16,10,32,18.70
2017,08,16,10,33,18.70
2017,08,16,10,34,18.70
2017,08,16,10,35,18.80
2017,08,16,10,36,18.80
2017,08,16,10,37,18.80
2017,08,16,10,38,18.80
2017,08,16,10,39,18.80
2017,08,16,10,40,18.80
2017,08,16,10,41,18.80
2017,08,16,10,42,18.80
2017,08,16,10,43,18.80
2017,08,16,10,44,18.80
2017,08,16,10,45,18.80
2017,08,16,10,46,18.80
2017,08,16,10,47,18.90
2017,08,16,10,48,18.90
2017,08,16,10,49,18.90
2017,08,16,10,50,18.90
2017,08,16,10,51,18.90
2017,08,16,10,52,18.90
2017,08,16,10,53,18.90
2017,08,16,10,54,19.00
2017,08,16,10,55,19.00
2017,08,16,10,56,19.00
2017,08,16,10,57,19.10
2017,08,16,10,58,19.10
2017,08,16,10,59,19.10
2017,08,16,11,00,19.10
2017,08,16,11,01,19.10
2017,08,16,11,02,19.10
2017,08,16,11,03,19.20
2017,08,16,11,04,19.20
2017,08,16,11,05,19.20
2017,08,16,11,06,19.20
2017,08,16,11,07,19.20
2017,08,16,11,08,19.20
2017,08,16,11,09,19.30
2017,08,16,11,10,19.30
2017,08,16,11,11,19.30
2017,08,16,11,12,19.30
2017,08,16,11,13,19.30
2017,08,16,11,14,19.30
2017,08,16,11,15,19.40
2017,08,16,11,16,19.40
2017,08,16,11,17,19.50
2017,08,16,11,18,19.60
2017,08,16,11,19,19.60
2017,08,16,11,20,19.80
2017,08,16,11,21,19.90
2017,08,16,11,22,20.00
2017,08,16,11,23,20.00
2017,08,16,11,24,19.90
2017,08,16,11,25,19.90
2017,08,16,11,26,19.90
2017,08,16,11,27,19.80
2017,08,16,11,28,19.80
2017,08,16,11,29,19.80
2017,08,16,11,30,19.70
2017,08,16,11,31,19.70
2017,08,16,11,32,19.70
2017,08,16,11,33,19.70
2017,08,16,11,34,19.60
2017,08,16,11,35,19.50
2017,08,16,11,36,19.40
2017,08,16,11,37,19.40
2017,08,16,11,38,19.40
2017,08,16,11,39,19.40
2017,08,16,11,40,19.40
2017,08,16,11,41,19.50
2017,08,16,11,42,19.50
2017,08,16,11,43,19.50
2017,08,16,11,44,19.50
2017,08,16,11,45,19.60
2017,08,16,11,46,19.60
2017,08,16,11,47,19.60
2017,08,16,11,48,19.70
2017,08,16,11,49,19.80
2017,08,16,11,50,19.80
2017,08,16,11,51,19.80
2017,08,16,11,52,19.90
2017,08,16,11,53,20.00
2017,08,16,11,54,20.00
2017,08,16,11,55,20.10
2017,08,16,11,56,20.10
2017,08,16,11,57,20.10
2017,08,16,11,58,20.00
2017,08,16,11,59,20.00
2017,08,16,12,00,19.90
2017,08,16,12,01,19.90
2017,08,16,12,02,19.90
2017,08,16,12,03,19.90
2017,08,16,12,04,20.00
2017,08,16,12,05,20.00
2017,08,16,12,06,20.10
2017,08,16,12,07,20.10
2017,08,16,12,08,20.20
2017,08,16,12,09,20.20
2017,08,16,12,10,20.30
2017,08,16,12,11,20.30
2017,08,16,12,12,20.40
2017,08,16,12,13,20.40
2017,08,16,12,14,20.40
2017,08,16,12,15,20.30
2017,08,16,12,16,20.30
2017,08,16,12,17,20.30
2017,08,16,12,18,20.20
2017,08,16,12,19,20.20
2017,08,16,12,20,20.20
2017,08,16,12,21,20.20
2017,08,16,12,22,20.10
2017,08,16,12,23,20.10
2017,08,16,12,24,20.00
2017,08,16,12,25,20.00
2017,08,16,12,26,20.10
2017,08,16,12,27,20.10
2017,08,16,12,28,20.20
2017,08,16,12,29,20.20
2017,08,16,12,30,20.20
2017,08,16,12,31,20.20
2017,08,16,12,32,20.30
2017,08,16,12,33,20.40
2017,08,16,12,34,20.50
2017,08,16,12,35,20.50
2017,08,16,12,36,20.60
2017,08,16,12,37,20.60
2017,08,16,12,38,20.60
2017,08,16,12,39,20.60
2017,08,16,12,40,20.60
2017,08,16,12,41,20.60
2017,08,16,12,42,20.60
2017,08,16,12,43,20.60
2017,08,16,12,44,20.70
2017,08,16,12,45,20.70
2017,08,16,12,46,20.80
2017,08,16,12,47,20.90
2017,08,16,12,48,21.00
2017,08,16,12,49,21.00
2017,08,16,12,50,21.10
2017,08,16,12,51,21.10
2017,08,16,12,52,21.10
2017,08,16,12,53,21.10
2017,08,16,12,54,21.20
2017,08,16,12,55,21.30
2017,08,16,12,56,21.50
2017,08,16,12,57,21.50
2017,08,16,12,58,21.70
2017,08,16,12,59,21.80
2017,08,16,13,00,21.80
2017,08,16,13,01,21.90
2017,08,16,13,02,21.90
2017,08,16,13,03,21.90
2017,08,16,13,04,21.90
2017,08,16,13,05,21.90
2017,08,16,13,06,21.90
2017,08,16,13,07,21.80
2017,08,16,13,08,21.70
2017,08,16,13,09,21.70
2017,08,16,13,10,21.80
2017,08,16,13,11,21.90
2017,08,16,13,12,21.90
2017,08,16,13,13,21.90
2017,08,16,13,14,22.00
2017,08,16,13,15,22.10
2017,08,16,13,16,22.20
2017,08,16,13,17,22.20
2017,08,16,13,18,22.20
2017,08,16,13,19,22.20
2017,08,16,13,20,22.20
2017,08,16,13,21,22.20
2017,08,16,13,22,22.30
2017,08,16,13,23,22.40
2017,08,16,13,24,22.50
2017,08,16,13,25,22.60
2017,08,16,13,26,22.70
2017,08,16,13,27,22.80
2017,08,16,13,28,23.00
2017,08,16,13,29,23.00
2017,08,16,13,30,23.10
2017,08,16,13,31,23.00
2017,08,16,13,32,22.80
2017,08,16,13,33,22.70
2017,08,16,13,34,22.70
2017,08,16,13,35,22.80
2017,08,16,13,36,23.00
2017,08,16,13,37,23.20
2017,08,16,13,38,23.40
2017,08,16,13,39,23.40
2017,08,16,13,40,23.30
2017,08,16,13,41,23.30
2017,08,16,13,42,23.30
2017,08,16,13,43,23.30
2017,08,16,13,44,23.20
2017,08,16,13,45,23.10
2017,08,16,13,46,23.00
2017,08,16,13,47,22.90
2017,08,16,13,48,23.00
2017,08,16,13,49,23.00
2017,08,16,13,50,23.00
2017,08,16,13,51,23.10
2017,08,16,13,52,23.20
2017,08,16,13,53,23.20
2017,08,16,13,54,23.30
2017,08,16,13,55,23.30
2017,08,16,13,56,23.50
2017,08,16,13,57,23.50
2017,08,16,13,58,23.60
2017,08,16,13,59,23.70
2017,08,16,14,00,23.70
2017,08,16,14,01,23.80
2017,08,16,14,02,23.90
2017,08,16,14,03,24.00
2017,08,16,14,04,24.10
2017,08,16,14,05,23.90
2017,08,16,14,06,23.70
2017,08,16,14,07,23.50
2017,08,16,14,08,23.50
2017,08,16,14,09,23.50
2017,08,16,14,10,23.60
2017,08,16,14,11,23.70
2017,08,16,14,12,23.80
2017,08,16,14,13,23.80
2017,08,16,14,14,23.80
2017,08,16,14,15,23.80
2017,08,16,14,16,23.80
2017,08,16,14,17,23.80
2017,08,16,14,18,23.80
2017,08,16,14,19,23.80
2017,08,16,14,20,23.80
2017,08,16,14,21,23.90
2017,08,16,14,22,23.90
2017,08,16,14,23,23.80
2017,08,16,14,24,23.80
2017,08,16,14,25,23.80
2017,08,16,14,26,23.80
2017,08,16,14,27,23.90
2017,08,16,14,28,23.90
2017,08,16,14,29,23.80
2017,08,16,14,30,23.80
2017,08,16,14,31,23.70
2017,08,16,14,32,23.60
2017,08,16,14,33,23.60
2017,08,16,14,34,23.60
2017,08,16,14,35,23.60
2017,08,16,14,36,23.70
2017,08,16,14,37,23.80
2017,08,16,14,38,23.80
2017,08,16,14,39,23.90
2017,08,16,14,40,24.00
2017,08,16,14,41,24.10
2017,08,16,14,42,24.10
2017,08,16,14,43,24.10
2017,08,16,14,44,24.00
2017,08,16,14,45,23.90
2017,08,16,14,46,23.90
2017,08,16,14,47,23.90
2017,08,16,14,48,23.90
2017,08,16,14,49,23.90
2017,08,16,14,50,23.90
2017,08,16,14,51,23.80
2017,08,16,14,52,23.80
2017,08,16,14,53,23.90
2017,08,16,14,54,24.00
2017,08,16,14,55,24.10
2017,08,16,14,56,24.10
2017,08,16,14,57,24.00
2017,08,16,14,58,23.90
2017,08,16,14,59,23.90
2017,08,16,15,00,23.90
2017,08,16,15,01,23.90
2017,08,16,15,02,23.80
2017,08,16,15,03,23.70
2017,08,16,15,04,23.60
2017,08,16,15,05,23.60
2017,08,16,15,06,23.60
2017,08,16,15,07,23.60
2017,08,16,15,08,23.60
2017,08,16,15,09,23.70
2017,08,16,15,10,23.70
2017,08,16,15,11,23.80
2017,08,16,15,12,23.80
2017,08,16,15,13,23.70
2017,08,16,15,14,23.70
2017,08,16,15,15,23.60
2017,08,16,15,16,23.60
2017,08,16,15,17,23.70
2017,08,16,15,18,23.70
2017,08,16,15,19,23.70
2017,08,16,15,20,23.60
2017,08,16,15,21,23.60
2017,08,16,15,22,23.60
2017,08,16,15,23,23.70
2017,08,16,15,24,23.70
2017,08,16,15,25,23.80
2017,08,16,15,26,23.90
2017,08,16,15,27,24.10
2017,08,16,15,28,24.10
2017,08,16,15,29,24.10
2017,08,16,15,30,24.20
2017,08,16,15,31,24.30
2017,08,16,15,32,24.30
2017,08,16,15,33,24.30
2017,08,16,15,34,24.40
2017,08,16,15,35,24.50
2017,08,16,15,36,24.60
2017,08,16,15,37,24.60
2017,08,16,15,38,24.60
2017,08,16,15,39,24.60
2017,08,16,15,40,24.50
2017,08,16,15,41,24.50
2017,08,16,15,42,24.40
2017,08,16,15,43,24.30
2017,08,16,15,44,24.20
2017,08,16,15,45,24.10
2017,08,16,15,46,24.20
2017,08,16,15,47,24.30
2017,08,16,15,48,24.40
2017,08,16,15,49,24.40
2017,08,16,15,50,24.50
2017,08,16,15,51,24.50
2017,08,16,15,52,24.60
2017,08,16,15,53,24.60
2017,08,16,15,54,24.60
2017,08,16,15,55,24.70
2017,08,16,15,56,24.60
2017,08,16,15,57,24.60
2017,08,16,15,58,24.50
2017,08,16,15,59,24.60
2017,08,16,16,00,24.60
2017,08,16,16,01,24.60
2017,08,16,16,02,24.60
2017,08,16,16,03,24.60
2017,08,16,16,04,24.60
2017,08,16,16,05,24.70
2017,08,16,16,06,24.70
2017,08,16,16,07,24.70
2017,08,16,16,08,24.70
2017,08,16,16,09,24.70
2017,08,16,16,10,24.60
2017,08,16,16,11,24.50
2017,08,16,16,12,24.60
2017,08,16,16,13,24.70
2017,08,16,16,14,24.70
2017,08,16,16,15,24.80
2017,08,16,16,16,24.80
2017,08,16,16,17,24.70
2017,08,16,16,18,24.70
2017,08,16,16,19,24.60
2017,08,16,16,20,24.70
2017,08,16,16,21,24.80
2017,08,16,16,22,24.80
2017,08,16,16,23,24.80
2017,08,16,16,24,24.90
2017,08,16,16,25,24.90
2017,08,16,16,26,24.80
2017,08,16,16,27,24.70
2017,08,16,16,28,24.70
2017,08,16,16,29,24.70
2017,08,16,16,30,24.60
2017,08,16,16,31,24.40
2017,08,16,16,32,24.30
2017,08,16,16,33,24.30
2017,08,16,16,34,24.30
2017,08,16,16,35,24.30
2017,08,16,16,36,24.30
2017,08,16,16,37,24.30
2017,08,16,16,38,24.30
2017,08,16,16,39,24.30
2017,08,16,16,40,24.30
2017,08,16,16,41,24.30
2017,08,16,16,42,24.40
2017,08,16,16,43,24.40
2017,08,16,16,44,24.40
2017,08,16,16,45,24.30
2017,08,16,16,46,24.20
2017,08,16,16,47,24.10
2017,08,16,16,48,24.10
2017,08,16,16,49,24.20
2017,08,16,16,50,24.30
2017,08,16,16,51,24.20
2017,08,16,16,52,24.00
2017,08,16,16,53,24.00
2017,08,16,16,54,24.00
2017,08,16,16,55,24.10
2017,08,16,16,56,24.10
2017,08,16,16,57,24.20
2017,08,16,16,58,24.20
2017,08,16,16,59,24.30
2017,08,16,17,00,24.40
2017,08,16,17,01,24.50
2017,08,16,17,02,24.40
2017,08,16,17,03,24.20
2017,08,16,17,04,24.20
2017,08,16,17,05,24.10
2017,08,16,17,06,24.00
2017,08,16,17,07,24.00
2017,08,16,17,08,23.90
2017,08,16,17,09,23.80
2017,08,16,17,10,23.90
2017,08,16,17,11,24.00
2017,08,16,17,12,24.00
2017,08,16,17,13,24.10
2017,08,16,17,14,24.10
2017,08,16,17,15,24.20
2017,08,16,17,16,24.20
2017,08,16,17,17,24.20
2017,08,16,17,18,24.20
2017,08,16,17,19,24.10